Flag for Azerbaijan Weather past 2 weeks in Ganja, Azerbaijan

Now
86 °F

Passing clouds.


Feels Like: 84 °F
Forecast: 68 / 84 °F
Wind: 5 mph from Northeast

Location: Gyanca Airport

Current Time: Aug 30, 2015 at 4:04:56 PM

Latest Report: Aug 30, 2015 at 3:30 PM


Visibility: N/A

Pressure: 29.98 "Hg

Humidity: 29%

Dew point: 50 °F

Location of GanjaLocation

Historic Weather in Ganja — Graph

°F

Ganja temperature yesterday

Maximum temperature yesterday: 84 °F (at 2:30 PM)
Minimum temperature yesterday: 64 °F (at 7:00 AM)
Average temperature yesterday: 74 °F

Past Weeks' High & Low Weather Summary

 TemperatureHumidityPressure
High102 °F (Aug 16, 6:30 PM)94% (Aug 24, 11:00 AM)30.18 "Hg (Aug 24, 11:00 AM)
Low63 °F (Aug 26, 10:30 AM)16% (Aug 16, 7:00 PM)29.56 "Hg (Aug 16, 8:00 PM)
Average78 °F53%29.92 "Hg
* Reported Aug 15 3:00 PM — Aug 30 3:00 PM, Ganja, Weather by CustomWeather, © 2015

Note: Actual official high and low records may vary slightly from our data, if they occured in-between our weather recording intervals... More about our weather records

Advertising

Ganja weather history for previous 24 hours

 ConditionsComfort  
Time TempWeatherWind HumidityBarometerVisibility
3:00 PM
Sun, Aug 30
86 °FPassing clouds.5 mph29%29.98 "HgN/A
2:30 PM84 °FPassing clouds.6 mph31%30.01 "HgN/A
2:00 PM84 °FPassing clouds.3 mph31%30.01 "HgN/A
1:30 PM84 °FPassing clouds.5 mph31%30.01 "HgN/A
1:00 PM82 °FPassing clouds.5 mph32%30.04 "HgN/A
12:30 PM81 °FPassing clouds.7 mph39%30.04 "HgN/A
12:00 PM81 °FPassing clouds.8 mph42%30.07 "HgN/A
11:30 AM79 °FPassing clouds.8 mph45%30.07 "HgN/A
11:00 AM77 °FPassing clouds.8 mph47%30.07 "HgN/A
10:30 AM77 °FPassing clouds.6 mph44%30.07 "HgN/A
10:00 AM75 °FPassing clouds.5 mph44%30.07 "HgN/A
9:00 AM73 °FPassing clouds.2 mph47%30.07 "HgN/A
8:30 AM70 °FPassing clouds.No wind53%30.07 "HgN/A
8:00 AM66 °FPassing clouds.1 mph60%30.07 "HgN/A
7:30 AM66 °FPassing clouds.No wind60%30.07 "HgN/A
7:00 AM66 °FPassing clouds.3 mph60%30.07 "HgN/A
6:30 AM66 °FPassing clouds.5 mph60%30.09 "HgN/A
6:00 AM66 °FPassing clouds.5 mph60%30.09 "HgN/A
5:30 AM66 °FPassing clouds.5 mph60%30.09 "HgN/A
5:00 AM66 °FPassing clouds.5 mph60%30.09 "HgN/A
4:30 AM68 °FPassing clouds.5 mph56%30.09 "HgN/A
4:00 AM68 °FPassing clouds.5 mph53%30.09 "HgN/A
3:30 AM70 °FPassing clouds.7 mph50%30.09 "HgN/A
3:00 AM70 °FPassing clouds.3 mph53%30.09 "HgN/A
2:00 AM70 °FPassing clouds.7 mph50%30.12 "HgN/A
1:30 AM72 °FPassing clouds.8 mph50%30.12 "HgN/A
1:00 AM70 °FPassing clouds.6 mph50%30.12 "HgN/A
12:30 AM72 °FPassing clouds.6 mph47%30.12 "HgN/A
12:00 AM72 °FPassing clouds.3 mph47%30.12 "HgN/A
11:30 PM
Sat, Aug 29
73 °FPassing clouds.6 mph44%30.12 "HgN/A
11:00 PM73 °FPassing clouds.7 mph44%30.12 "HgN/A
10:30 PM77 °FScattered clouds.6 mph39%30.12 "HgN/A
10:00 PM77 °FScattered clouds.5 mph34%30.12 "HgN/A
9:30 PM79 °FScattered clouds.6 mph32%30.12 "HgN/A
9:00 PM79 °FPartly sunny.7 mph34%30.12 "HgN/A
8:30 PM81 °FPartly sunny.5 mph32%30.09 "HgN/A
8:00 PM81 °FPartly sunny.8 mph32%30.09 "HgN/A
7:30 PM82 °FPartly sunny.7 mph30%30.09 "HgN/A
6:30 PM82 °FPartly sunny.8 mph28%30.09 "HgN/A
6:00 PM82 °FPartly sunny.9 mph28%30.09 "HgN/A
5:30 PM84 °FScattered clouds.7 mph27%30.09 "HgN/A
5:00 PM84 °FScattered clouds.9 mph27%30.09 "HgN/A
4:30 PM84 °FScattered clouds.12 mph27%30.12 "HgN/A
4:00 PM84 °FScattered clouds.13 mph25%30.12 "HgN/A
Weather by CustomWeather, © 2015

See weather overviewHow to use our weather pages